Regional Weather Roundup
Issued by NWS Northern Indiana

Home | Current Version | Previous Version | Graphics & Text | Print | Product List | Glossary On
Versions: 1 2 3 4 5 6 7 8 9 10 11 12 13 14 15 16 17 18 19 20 21 22 23 24 25 26 27 28 29 30 31 32 33 34 35 36 37 38 39 40 41 42 43 44 45 46 47 48 49 50
000
ASUS43 KIWX 291900
RWRIWX

KIWX WEATHER ROUNDUP
NATIONAL WEATHER SERVICE NORTHERN INDIANA
300 PM EDT TUE JUL 29 2014

NOTE: "FAIR" INDICATES FEW OR NO CLOUDS BELOW 12,000 FEET WITH NO
SIGNIFICANT WEATHER AND/OR OBSTRUCTIONS TO VISIBILITY.

* THESE STATIONS ARE NOT UNDER NWS QUALITY CONTROL. THEY ALSO MAY NOT
  REPORT WEATHER SUCH AS PRECIPITATION OR FOG.

INZ001>027-292000-
NORTHERN INDIANA

CITY           SKY/WX    TMP DP  RH WIND       PRES   REMARKS
GARY*          MOSUNNY   75  59  57 NE8       30.03S
VALPARAISO     SUNNY     75  55  49 NW12      30.03S
SOUTH BEND     MOSUNNY   74  55  51 W13       30.02F
GOSHEN         CLOUDY    71  57  61 W13       30.00F
WARSAW*        MOSUNNY   73  55  53 W8        30.02F
ANGOLA*        PTSUNNY   73  61  64 W7        30.01S
FORT WAYNE     PTSUNNY   72  55  55 W10       30.03F
PERU/GRISSOM   MOSUNNY   75  58  56 W10       30.03F

$$
INZ028>050-292000-
CENTRAL INDIANA

CITY           SKY/WX    TMP DP  RH WIND       PRES   REMARKS
LAFAYETTE      MOSUNNY   77  56  48 W14       30.04F
KOKOMO*        MOSUNNY   75  57  53 W10       30.04F
MUNCIE*        SUNNY     72  52  49 W10       30.05F
INDIANAPOLIS   PTSUNNY   74  53  48 NW9       30.07F

$$
MIZ043>046-050>051-056>058-064>065-071>073-077>080-292000-
SOUTHWEST LOWER MICHIGAN

CITY           SKY/WX    TMP DP  RH WIND       PRES   REMARKS
BATTLE CREEK   PTSUNNY   69  60  73 W6        29.99F
BENTON HARBOR  SUNNY     67  58  72 VRB7      30.03S
COLDWATER*     PTSUNNY   70  57  63 W8        30.00F
HILLSDALE*     MOSUNNY   70  56  61 W8        30.01S
HOLLAND        SUNNY     69  58  67 W9        30.01S
GRAND RAPIDS   PTSUNNY   76  56  49 W9        29.98S
KALAMAZOO      CLOUDY    72  56  57 NW14G20   30.00S
STURGIS*       PTSUNNY   72  59  64 SW12G17   30.00S
THREE RIVERS*  CLOUDY    73  59  60 NW15      30.00F

$$
OHZ001>008-015>018-024>025-292000-
NORTHWEST OHIO

CITY           SKY/WX    TMP DP  RH WIND       PRES   REMARKS
DEFIANCE       PTSUNNY   71  51  49 W6        30.02F
FINDLAY        MOSUNNY   72  51  47 NW8       30.01F
TOLEDO EXPRESS PTSUNNY   71  50  47 W13       30.00F
TOLEDO METCALF PTSUNNY   72  51  47 W12       30.01F
LIMA           PTSUNNY   70  53  54 VRB3      30.04S

$$
&&


USA.gov is the U.S. government's official web portal to all federal, state and local government web resources and services.